Regional Weather Roundup
Issued by NWS Cleveland, OH

Current Version | Previous Version | Text Only | Print | Product List | Glossary On
Versions: 1 2 3 4 5 6 7 8 9 10 11 12 13 14 15 16 17 18 19 20 21 22 23 24 25 26 27 28 29 30 31 32 33 34 35 36 37 38 39 40 41 42 43 44 45 46 47 48 49 50
000 ASUS41 KCLE 140812 RWRCLE OHIO REGIONAL WEATHER ROUNDUP NATIONAL WEATHER SERVICE WILMINGTON, OH 400 AM EDT FRI MAY 14 2021 NOTE: "FAIR" INDICATES FEW OR NO CLOUDS BELOW 12,000 FEET WITH NO SIGNIFICANT WEATHER AND/OR OBSTRUCTIONS TO VISIBILITY. OHZ001>008-015>018-024>027-034-035-043-044-140900- NORTHWEST OHIO CITY SKY/WX TMP DP RH WIND PRES REMARKS DEFIANCE FAIR 42 35 76 CALM 30.31S FINDLAY FAIR 47 36 65 CALM 30.30R TOLEDO EXPRESS FAIR 44 34 67 CALM 30.30S TOLEDO EXEC FAIR 46 34 62 CALM 30.31S LIMA LGT RAIN 43 36 76 CALM 30.31S $$ OHZ009>014-019>023-028>033-038-089-140900- NORTHEAST OHIO CITY SKY/WX TMP DP RH WIND PRES REMARKS CLE-HOPKINS FAIR 41 34 76 S3 30.29S CLE-LAKEFRONT FAIR 48 35 60 S8 30.29S CUY CO. ARPT FAIR 37 35 91 CALM 30.31S LORAIN-ELYRIA FAIR 41 35 79 S3 30.31S ASHTABULA FAIR 37 34 89 CALM 30.30S AKRON-CANTON FAIR 46 32 58 CALM 30.29S WOOSTER FAIR 37 34 89 CALM 30.31S MANSFIELD FAIR 40 33 76 SE3 30.30F YOUNGSTOWN FAIR 39 34 82 CALM 30.29S $$ OHZ042-051>053-060>062-070>072-077>081-140900- SOUTHWEST OHIO CITY SKY/WX TMP DP RH WIND PRES REMARKS CINC-COVINGTON FAIR 47 35 63 N5 30.30S CINC-LUNKEN FAIR 39 38 96 CALM 30.33R HAMILTON FAIR 40 38 93 CALM 30.33R DAYTON FAIR 46 32 58 CALM 30.32S WRIGHT-PAT AFB FAIR 41 36 83 CALM 30.31S DAYTON GENERAL FAIR 42 36 79 NE3 30.30S WILMINGTON FAIR 42 33 70 CALM 30.30F $$ OHZ036-037-039>041-045>050-054>059-063>069-073>076-082>088-140900- CENTRAL AND SOUTHEAST OHIO CITY SKY/WX TMP DP RH WIND PRES REMARKS COLUMBUS FAIR 41 36 82 CALM 30.30S OSU AIRPORT FAIR 41 34 76 CALM 30.30S BOLTON FIELD FAIR 40 37 92 CALM 30.31S RICKENBACK AFB FAIR 42 35 75 CALM 30.31R NEWARK FAIR 39 37 92 CALM 30.30S MARION FAIR 43 36 76 CALM 30.31S LANCASTER FAIR 36 35 96 CALM 30.31S ZANESVILLE FAIR 39 37 92 CALM 30.30S NEW PHILLY FAIR 38 36 92 CALM 30.31S $$

USA.gov is the U.S. government's official web portal to all federal, state and local government web resources and services.